STARLINK-31917, 59669

Orbit data source: Space-Track

STARLINK-31917, 59669 is a payload satellite owned by SpaceX/Seattle (US) in LEO that was launched on Mon, 06 May 2024 UTC via an FALCON 9 launch vehicle from the Air Force Eastern Test Range (AFETR). Payload-class satellites include a variety of spacecraft equipped with specific instruments for various scientific and technological missions. These include communications satellites like Starlink; space stations such as the ISS; scientific satellites like the Hubble; Earth observation satellites from companies like Planet Labs, Umbra, and HawkEye 360; GPS; miniature CubeSats for education and research; and military/defense satellites.

Loading next visibility...
Identifier
59669, 2024-084R
Orbit
LEO
Country
Flag of USUS
Related business
Manufacturer
SpaceX/Seattle
Mission
Operational Commercial Communications
Bus & Motor
STARLINK V2M, Unknown motor
Mass
730 kg wet, ~700 kg dry
Launch date (UTC)
2024-05-06 (2 years ago)
Launch vehicle
FALCON 9
Launch site
Air Force Eastern Test Range (AFETR)
Object type
Payload
Rocket body
Debris
Shape & HBR
Box + 2 Pan, 17.7 m
Radar Cross Section
33.884 m², Large (>1 m²)

Expand to show TLE details & history
Last TLE update: 1 day ago

TLE from 1 day ago
0 STARLINK-31917
1 59669U 24084R   25347.90716287 -.00001651  00000-0 -50461-4 0  9999
2 59669  43.0007 166.2622 0001406 269.9705  90.0986 15.27594738 91255
Epoch: 2025-12-13T21:46Z
TLE epoch observation values (Epoch: 2025-12-13T21:46:18.871Z)
Latitude
-0.00001°
Longitude
116.85586°
Altitude
482.782 km
Speed
7.626 km/s
True Right ascension
11h 05m 02s
True Declination
0° 00' 00"
Sunlit
Object was in daylight at epoch
Visualization orbit readout
Latitude
Unknown
Longitude
Unknown
Altitude
Unknown
Speed
Unknown
Apparent Right ascension
Unknown
Apparent Declination
Unknown
Sunlit
N/A
Visualization observer readout
Local Sidereal Time
21:45:34
Azimuth
Unknown
Elevation
Unknown
Doppler factor
Unknown
Orbital elements
Apogee altitude
485.915 km
Perigee altitude
483.985 km
Semi-major axis
6,863.087 km
Eccentricity
0.00014
Inclination
43.0007°
RAAN
166.2622°
Arg. of periapsis
269.9705°
True anomaly
90.11471°
Mean anomaly
90.0986°
Eccentric anomaly
90.10666°
Mean motion
3.81737 °/min
Orbital period
94.31 mins
BSTAR
-0.000050461
Loading maneuver chart data...
Computing Atmospheric mass density...
Loading historical data...
Loading historical data...
Loading historical data...
Loading historical data...
Loading historical data...
Loading historical data...
Loading historical data...

Documentation

Showing up to 5 results
|